Flag for France Weather past 2 weeks in Marigot, Saint Martin, France

Now
86 °F

Partly sunny.


Feels Like: 92 °F
Forecast: 82 / 87 °F
Wind: 15 mph from East

Location: Juliana Airport - Saint Maarten

Current Time: Jul 7, 2015 at 4:35:03 PM

Latest Report: Jul 7, 2015 at 4:00 PM


Visibility: N/A

Pressure: 30.04 "Hg

Humidity: 62%

Dew point: 72 °F

Location of MarigotLocation

Historic Weather in Marigot — Graph

°F

Marigot temperature yesterday

Maximum temperature yesterday: 88 °F (at 2:00 PM)
Minimum temperature yesterday: 81 °F (at 12:00 AM)
Average temperature yesterday: 83 °F

Past Weeks' High & Low Weather Summary

 TemperatureHumidityPressure
High88 °F (Jul 2, 2:00 PM)89% (Jun 27, 6:00 AM)30.21 "Hg (Jun 27, 6:00 AM)
Low77 °F (Jun 27, 6:00 AM)52% (Jun 25, 1:00 PM)30.01 "Hg (Jul 7, 3:00 AM)
Average83 °F70%30.09 "Hg
* Reported Jun 22 3:00 PM — Jul 7 3:00 PM, Marigot, Weather by CustomWeather, © 2015

Note: Actual official high and low records may vary slightly from our data, if they occured in-between our weather recording intervals... More about our weather records

Advertising

Marigot weather history for previous 24 hours

 ConditionsComfort  
Time TempWeatherWind HumidityBarometerVisibility
3:00 PM
Tue, Jul 7
86 °FPartly sunny.16 mph66%30.04 "HgN/A
2:00 PM86 °FBroken clouds.17 mph62%30.07 "HgN/A
1:00 PM86 °FScattered clouds.18 mph62%30.07 "HgN/A
12:00 PM86 °FScattered clouds.18 mph62%30.07 "HgN/A
11:00 AM86 °FScattered clouds.15 mph62%30.07 "HgN/A
10:00 AM86 °FPassing clouds.14 mph59%30.07 "HgN/A
9:00 AM84 °FPassing clouds.14 mph62%30.07 "HgN/A
8:00 AM82 °FScattered clouds.15 mph70%30.07 "HgN/A
7:00 AM82 °FScattered clouds.10 mph70%30.07 "HgN/A
6:00 AM81 °FScattered clouds.12 mph74%30.04 "HgN/A
5:00 AM81 °FPassing clouds.12 mph74%30.04 "HgN/A
4:00 AM81 °FPassing clouds.12 mph74%30.01 "HgN/A
3:00 AM81 °FPassing clouds.12 mph74%30.01 "HgN/A
2:00 AM81 °FPassing clouds.10 mph74%30.04 "HgN/A
1:00 AM81 °FPassing clouds.10 mph74%30.04 "HgN/A
12:00 AM81 °FPassing clouds.14 mph74%30.07 "HgN/A
11:00 PM
Mon, Jul 6
81 °FPassing clouds.12 mph74%30.07 "HgN/A
10:00 PM82 °FPassing clouds.12 mph70%30.07 "HgN/A
9:00 PM82 °FPassing clouds.12 mph70%30.07 "HgN/A
8:00 PM82 °FPassing clouds.10 mph70%30.07 "HgN/A
7:00 PM82 °FPassing clouds.10 mph74%30.07 "HgN/A
6:00 PM84 °FPassing clouds.14 mph66%30.04 "HgN/A
5:00 PM86 °FPassing clouds.14 mph62%30.04 "HgN/A
4:00 PM86 °FPassing clouds.10 mph62%30.04 "HgN/A
Weather by CustomWeather, © 2015

See weather overviewHow to use our weather pages